Torna al catalogo

JILIN-1 GAOFEN 03D-08

AttivoScienzaPO
NORAD 54251·PAYLOAD·🇨🇳 China
Questo nome del satellite non è ancora stato confermato da fonti ufficiali.

Lanciato Nov 16, 2022 da Jiuquan Satellite Launch Center

Loading…

Prossimi Passaggi (prossime 24 ore)

TLE

AggiornatoSource: Space-Track

Epoca: Sep 14, 2026, 14:25 UTC

1 54251U 22155A   26257.60109438  .00083505  00000-0  54047-3 0  9999
2 54251  97.6320  50.9727 0002102   5.1950 354.9336 15.75810947213849

Traccia JILIN-1 GAOFEN 03D-08 in tempo reale con AllMySat

Download on the App Store